Location: Walgrove Observatory
(39.4553°N, 76.8212°W)
Time: 14:42:21
(UTC-05:00)

Hubble Space Telescope - Visible Passes

Search period start: 16 December 2018 00:00
Search period end: 26 December 2018 00:00
Orbit: 537 x 540 km, 28.5° (Epoch: 16 December)

Date Brightness Start Highest point End Pass type
(mag) Time Alt. Az. Time Alt. Az. Time Alt. Az.
21 Dec 3.3 18:56:41 10° S 18:57:37 11° S 18:57:37 11° S visible
22 Dec 3.1 18:45:36 10° SSW 18:47:35 13° SSE 18:47:49 13° SSE visible
23 Dec 3.0 18:34:42 10° SSW 18:37:01 15° S 18:38:00 14° SSE visible
24 Dec 3.0 18:23:56 10° SSW 18:26:28 16° S 18:28:12 13° SE visible
25 Dec 3.0 18:13:14 10° SW 18:15:55 17° S 18:18:25 11° SE visible
